Startpagina
METAR-TAF:

METAR-TAF

Vliegvelden :

Bütgenbach, België

Elsenborn

breedte: 50-28N, lengte: 006-11E, hoogte: 564 m

Actueel weer

Dit bericht is 18 minuten geleden gemaakt, om 18:55 UTC
Wind 4 kt uit het westen
Temperatuur 11°C
Vochtigheid 66%
Druk 1017 hPa
Zicht 10 km of meer

METAR: EBLB 231855Z AUTO 26004KT 9999 SCT220/// 11/05 Q1017 BLU

Tijdstip: 21:13 (19:13 UTC)


TAF: ontbreekt

Waarnemingen en weersverwachtingen van meer dan 4000 vliegvelden (METAR en TAF).

De beschikbare stations zijn de gele en rode punten op de kaart.

Ga met uw muis naar het station om de naam te zien.

Klik dan om waarnemingen en weersverwachtingen te zien.

kaart wijzigen: klik op de groene knoppen met een zwart kruis om in te zoomen, op de groene knop met een streepje om uit te zoomen of op de groene pijlen voor aangrenzende kaarten.


METAR-TAF: